Regional Weather Roundup
Issued by NWS

Home | Current Version | Previous Version | Graphics & Text | Print | Product List | Glossary On
Versions: 1 2 3 4 5 6 7 8 9 10 11 12 13 14 15 16 17 18 19 20 21 22 23 24 25 26 27 28 29 30 31 32 33 34 35 36 37 38 39 40 41 42 43 44 45 46 47 48 49 50
000
ASUS43 KIND 070009
RWRIN

WEATHER ROUNDUP FOR INDIANA
NATIONAL WEATHER SERVICE INDIANAPOLIS IN
800 PM EDT WED MAY 06 2015

NOTE: "FAIR" INDICATES FEW OR NO CLOUDS BELOW 12,000 FEET WITH NO
SIGNIFICANT WEATHER AND/OR OBSTRUCTIONS TO VISIBILITY.

* - STATION DOES NOT REPORT WEATHER SUCH AS PRECIPITATION OR FOG.

+ - STATION NOT QUALITY CONTROLLED BY THE NATIONAL WEATHER SERVICE.
    USE DATA WITH CAUTION...ESPECIALLY DEWPOINT AND RELATIVE
    HUMIDITY OBSERVATIONS.

INZ001>003-010>013-019-020-070100-
NORTHWEST INDIANA

CITY           SKY/WX    TMP DP  RH WIND       PRES   REMARKS
GARY /AIRPORT/ MOCLDY    61 N/A N/A VRB5      30.08F
KNOX *+        CLEAR     79  27  14 S5        30.07S
LA PORTE +     CLEAR     81  59  47 SE3       30.08F
6HR MIN TEMP:  78; 6HR MAX TEMP:  84;

MICHIGAN CITY+ PTCLDY    72  54  53 N3        30.07F
MONTICELLO +   PTCLDY    80  53  39 CALM      30.06F
6HR MIN TEMP:  80; 6HR MAX TEMP:  83;

VALPARAISO     PTCLDY    79  54  41 S5        30.07F
6HR MIN TEMP:  78; 6HR MAX TEMP:  83;


$$

LMZ046-743>745-070100-
SOUTHERN LAKE MICHIGAN

STATION/POSITION TIME  TEMP    WIND        PRES    WAVE
                       AIR SEA DIR/SP/G            HT
                 (UTC) (F)     (DEG/KT/KT) (MB)    (FT)
BURNS HARBOR     0000   57      70/  9/ 10 1018.6S
MICHIGAN CITY    0000   60      40/ 15/ 16   N/A
5NW MICH CITY    0000   55 54   80/  8/  8   N/A     1

$$

INZ004-005-014>016-021>024-070100-
NORTH CENTRAL INDIANA

CITY           SKY/WX    TMP DP  RH WIND       PRES   REMARKS
ELKHART        PTCLDY    77  54  44 SE6       30.10S
GOSHEN         CLEAR     76  61  59 E5        30.09F
6HR MIN TEMP:  74; 6HR MAX TEMP:  82;

LOGANSPORT +   CLEAR     77  50  38 S3        30.09S
ROCHESTER +    CLEAR     81  57  44 CALM      30.09S
SOUTH BEND     PTCLDY    79  57  46 S7        30.09S
6HR MIN TEMP:  75; 6HR MAX TEMP:  82;

WARSAW +       CLEAR     77  59  53 SE3       30.10S

$$

INZ006>009-017-018-025>027-070100-
NORTHEAST INDIANA

CITY           SKY/WX    TMP DP  RH WIND       PRES   REMARKS
ANGOLA *+      CLEAR     73  63  68 SE5       30.13F
AUBURN +       CLEAR     72  61  68 E5        30.13S HAZE
FORT WAYNE     PTCLDY    74  62  66 NE10      30.11F
6HR MIN TEMP:  73; 6HR MAX TEMP:  83;

HUNTINGTON +   CLEAR     79  55  42 CALM      30.10S
6HR MIN TEMP:  74; 6HR MAX TEMP:  81;


$$

INZ028-029-035-036-043>045-051>053-070100-
WEST CENTRAL INDIANA

CITY           SKY/WX    TMP DP  RH WIND       PRES   REMARKS
CRAWFORDSVL +  PTCLDY    79  40  24 S3        30.08S
6HR MIN TEMP:  79; 6HR MAX TEMP:  83;

GREENCASTLE +  CLEAR     79  46  31 CALM      30.09S
LAFAYETTE      PTCLDY    80  51  36 S5        30.06F
6HR MIN TEMP:  80; 6HR MAX TEMP:  83;

TERRE HAUTE    PTCLDY    79  55  43 S5        30.06F
6HR MIN TEMP:  79; 6HR MAX TEMP:  85;


$$

INZ030>032-037>040-046>048-054>057-064-065-070100-
CENTRAL INDIANA

CITY           SKY/WX    TMP DP  RH WIND       PRES   REMARKS
CP ATTERBURY + CLEAR     79  54  41 CALM      30.09S
FRANKFORT +    PTCLDY    81  52  37 CALM      30.10F
6HR MIN TEMP:  80; 6HR MAX TEMP:  85;

GREENWOOD *+   CLEAR     81  48  32 S3        30.09F
INDIANAPOLIS   PTCLDY    78  51  38 SE6       30.07F
6HR MIN TEMP:  78; 6HR MAX TEMP:  86;

-EAGLE CREEK   PTCLDY    80  50  34 S3        30.08S
6HR MIN TEMP:  80; 6HR MAX TEMP:  84;

KOKOMO *+      CLEAR     79  57  47 S5        30.08S
6HR MIN TEMP:  79; 6HR MAX TEMP:  84;

MARION +       CLEAR     79  51  38 S3        30.11R
MT COMFORT *+  CLEAR     81  27  13 SE3       30.09F
SHELBYVILLE    CLEAR     85  50  29 E3        30.08F
6HR MIN TEMP:  83; 6HR MAX TEMP:  87;

ZIONSVILLE +   PTCLDY    81  52  36 CALM      30.10S
6HR MIN TEMP:  81; 6HR MAX TEMP:  85;


$$

INZ033-034-041-042-049-050-058-059-070100-
EAST CENTRAL INDIANA

CITY           SKY/WX    TMP DP  RH WIND       PRES   REMARKS
MUNCIE         CLEAR     80  56  43 SE5       30.10F
6HR MIN TEMP:  79; 6HR MAX TEMP:  84;


$$

INZ060-061-067>069-081>083-085>088-070100-
SOUTHWEST INDIANA

CITY           SKY/WX    TMP DP  RH WIND       PRES   REMARKS
EVANSVILLE     CLEAR     81  56  42 SE3       30.06F
6HR MIN TEMP:  81; 6HR MAX TEMP:  86;

HUNTINGBURG *+ CLEAR     81  57  44 CALM      30.08R
6HR MIN TEMP:  79; 6HR MAX TEMP:  84;

WASHINGTON +   CLEAR     80  50  35 S7        30.06S
6HR MIN TEMP:  80; 6HR MAX TEMP:  86;


$$

INZ062-063-066-070>080-084-089>092-070100-
SOUTH CENTRAL AND SOUTHEAST INDIANA

CITY           SKY/WX    TMP DP  RH WIND       PRES   REMARKS
BLOOMINGTON    CLEAR     79  53  40 S5        30.08F
6HR MIN TEMP:  79; 6HR MAX TEMP:  85;

MADISON *+     CLEAR     75  61  60 CALM      30.11S
NORTH VERNON + CLEAR     77  59  53 CALM      30.09F
SEYMOUR +      CLEAR     82  54  36 S3        30.07F

$$




USA.gov is the U.S. government's official web portal to all federal, state and local government web resources and services.